Tracking 29892 objects as of 21-Nov-2024
HD Live streaming from Space Station
objects crossing your sky now

STARLINK-3594

Track STARLINK-3594 now!
10-day predictions
STARLINK-3594 is classified as:


NORAD ID: 51895
Int'l Code: 2022-022AV
Perigee: 546.0 km
Apogee: 547.8 km
Inclination: 53.2 °
Period: 95.4 minutes
Semi major axis: 6917 km
RCS: Unknown
Launch date: March 3, 2022
Source: United States (US)
Launch site: AIR FORCE EASTERN TEST RANGE (AFETR)
Your satellite tracking list
Your tracking list is empty




NASA's NSSDC Master Catalog

Two Line Element Set (TLE):
1 51895U 22022AV  24325.38793820 -.00000152  00000-0  85512-5 0  9997
2 51895  53.2171 328.3394 0001293  98.0935 262.0204 15.08840938151649
Source of the keplerian elements: AFSPC